Погода в Вельяминовой

Россия / Брянская область     53°02′42″N   35°05′06″E
темп.,
°C
ветер,
м/с
пор.,
м/с
влажн.,
%
обл.,
%
осадки,
мм/ч
давл.,
гПа
погр.,
м
5 марта, пт
пт500:00−2з41095100 0.1 1005330
03:00−2ссз5991100 0.1 1007523
06:00−7сз339489 0.0 100932
09:00−7зсз359549 0.0 1010113
12:00−2зсз359231 0.0 1012499
15:00−1зсз458358 0.1 1013764
18:00−5зсз348699 0.0 101477
21:00−7зсз238799 0.0 101621
6 марта, сб
сб600:00−8з2391100 0.0 101624
03:00−9з3493100 0.0 101848
06:00−11з359855 0.0 101777
09:00−7ссз5109476 0.1 1018659
12:00−4ссз687996 0.1 1019897
15:00−3сз477449 0.2 10191290
18:00−6зсз478177 0.1 1019135
21:00−9з348638 0.1 102056
7 марта, вс
вс700:00−10зюз47900 0.0 101998
03:00−10юз511920 0.0 1017228
06:00−8юз7148769 0.0 1014522
09:00−5юз9178385 0.0 1009810
12:00−3зюз121994100 0.9 10041159
15:00−2сз121594100 3.0 10041091
18:00−7зсз487167 0.2 1006142
21:00−9зюз487533 0.2 1007117
8 марта, пн
пн800:00−8юз6128225 0.0 1005266
03:00−5зюз6129560 0.3 1003607
06:00−5з61385100 0.3 1002733
09:00−8зсз6118766 0.3 1004627
12:00−7сз7126933 0.1 10071763
15:00−6зсз697517 0.1 1009980
18:00−8з47830 0.0 1010130
21:00−10з34916 0.0 101259
9 марта, вт
вт900:00−10з349554 0.0 101347
03:00−10зсз359660 0.1 1013126
06:00−10ссз3796100 0.1 1015215
09:00−11ссз4791100 0.2 1016574
12:00−10ссз4784100 0.0 1018657
15:00−8сз467479 0.0 10191037
18:00−10зсз478427 0.0 1019126
21:00−12з349025 0.0 102152